Vorticity
16 0 -9 9 22 21 22 21 18 18 15 14 13 12 13 11 11 10 8 9 10 10 11 11 11 11 11 10 9 8 7 7 7 6 6 6 5 5 5 6 8 9 10 11 11 11 10 10 10 9 8 7 5 4 3 3 4 4 5 6 6 3 4 5 8 9 8 6 5 4 3 5 7 3 0 3 5 6 6 5 5 7 8 8 9
12 -1 -2 13 13 10 13 11 10 9 8 9 8 7 7 6 7 7 7 8 10 11 11 11 11 11 11 11 10 10 9 9 8 6 5 6 6 5 4 3 4 4 5 6 8 9 9 8 8 8 8 9 9 8 6 4 3 3 4 4 5 5 3 3 4 7 8 9 7 6 4 3 4 4 3 3 3 4 5 5 5 7 8 8 8
11 4 4 8 7 10 11 10 13 13 11 10 9 9 9 9 10 10 11 11 12 12 12 12 11 11 12 11 11 10 8 8 9 9 7 7 7 6 7 6 5 5 4 4 4 5 7 7 7 6 5 6 7 9 10 9 6 4 3 3 4 4 4 3 4 4 5 7 9 8 5 3 5 4 3 2 3 4 6 7 8 8 9 8 7
10 7 9 14 13 13 15 17 18 18 18 16 14 11 6 6 8 9 9 9 9 10 10 11 11 10 11 11 12 12 10 8 7 8 8 8 8 7 7 8 8 7 5 5 5 4 5 6 7 6 5 4 4 5 7 10 11 9 6 3 2 4 5 4 3 4 4 4 5 6 6 6 5 4 4 5 6 7 9 9 7 6 7 8 7
8 9 13 17 12 7 9 10 9 10 10 7 3 -1 -1 4 8 8 8 8 9 10 9 10 9 9 9 9 10 11 13 11 10 10 8 7 7 6 7 8 8 8 7 6 6 6 5 5 7 7 7 6 4 2 2 3 6 10 11 8 5 2 2 4 4 4 4 4 3 4 6 6 4 5 5 4 5 6 8 10 10 6 4 6 8
7 9 12 12 11 7 4 6 8 6 2 1 -0 3 11 14 10 6 6 5 6 8 11 11 10 10 9 9 8 7 8 8 9 11 10 8 7 7 7 7 8 8 7 6 6 5 5 5 5 5 6 7 7 6 4 2 0 2 6 10 11 8 3 2 3 4 4 4 4 3 5 5 5 6 6 4 5 5 3 6 12 11 5 4 5
6 10 13 9 9 7 4 8 5 2 6 7 8 16 15 7 4 4 1 3 8 11 14 14 13 13 11 12 12 10 9 6 5 7 8 7 6 7 8 8 9 9 8 7 7 7 6 6 5 4 4 4 6 7 6 6 3 1 1 2 6 11 11 7 2 2 4 5 4 4 4 5 6 6 5 5 5 3 2 2 4 5 4 5 6
8 12 14 10 11 10 7 6 2 4 9 7 11 12 -2 -9 -1 0 -2 6 16 18 19 18 18 17 14 13 14 14 15 13 9 7 8 8 7 7 8 10 12 12 12 11 12 14 13 12 11 8 7 6 6 6 6 5 5 4 3 1 1 2 7 11 9 6 3 3 5 6 5 4 5 5 5 6 5 3 4 4 -0 -1 2 6 6
8 10 10 8 10 10 6 4 4 5 6 11 15 1 -15 -9 -2 -3 3 15 20 19 20 21 21 22 22 21 19 18 19 21 20 17 16 15 14 14 15 18 21 23 25 26 27 29 30 30 28 24 20 16 14 13 12 10 7 6 4 2 2 -0 -0 4 9 10 7 4 3 4 6 5 5 5 5 6 6 5 5 5 5 5 6 9 10
5 6 6 5 5 7 6 6 8 9 11 12 4 -11 -12 -2 -1 3 15 19 16 17 19 22 22 25 26 27 28 27 27 28 30 30 30 30 30 32 32 32 34 37 42 45 45 46 46 46 45 44 41 36 31 27 23 21 18 15 11 8 4 1 -0 -0 2 6 8 8 5 3 3 5 5 6 5 5 6 7 5 5 7 8 8 10 14
5 4 4 4 2 3 3 2 2 1 -0 -3 -8 -6 -0 3 6 14 17 14 17 19 20 22 23 24 25 26 28 29 29 30 30 31 33 35 37 38 38 38 40 42 42 41 41 41 41 41 42 45 47 48 47 44 39 35 32 28 25 22 16 9 3 -1 -0 1 3 6 7 7 4 3 4 5 6 5 5 6 7 5 5 8 9 5 3
1 -1 0 4 4 2 -0 -2 -2 -4 -3 -2 1 4 3 5 12 17 17 20 24 24 22 22 21 21 22 22 23 24 25 26 26 26 27 30 32 32 34 35 35 34 33 32 32 33 34 35 37 38 38 39 41 43 44 44 42 40 38 36 34 30 20 9 3 1 1 1 3 6 7 5 4 4 5 6 4 5 7 7 5 5 10 6 -1
2 2 3 5 2 -1 -3 -4 -2 2 4 4 5 8 10 16 21 22 25 25 22 19 18 18 18 18 19 19 20 22 24 24 24 25 25 27 30 31 30 29 28 27 27 27 26 28 31 33 35 36 35 36 37 37 38 40 41 42 43 43 42 43 41 33 20 9 4 3 0 1 4 6 6 4 4 5 5 4 5 6 6 5 8 9 4
-3 -0 -0 -1 -2 -0 2 4 9 13 14 15 18 22 23 24 23 22 21 17 15 15 15 15 16 17 18 19 23 25 25 25 25 25 28 30 29 26 24 24 23 20 16 14 14 17 20 23 27 32 34 36 38 38 37 37 39 39 38 40 40 41 44 45 41 30 19 13 8 3 2 4 6 7 6 5 5 6 4 4 6 7 6 8 7
9 12 12 12 14 16 17 18 19 20 20 22 22 22 22 22 23 21 20 19 19 18 17 19 19 19 19 22 26 28 26 25 25 25 28 28 23 20 21 21 15 10 7 6 8 9 9 11 14 20 24 26 30 34 36 37 39 40 39 38 39 39 39 42 45 44 37 29 23 15 8 6 5 5 7 7 6 6 7 6 5 7 6 7 7
22 22 22 23 23 24 24 23 24 24 24 25 25 26 28 29 29 29 29 28 27 26 26 25 23 22 23 26 29 29 26 25 26 25 23 19 17 18 18 14 8 6 7 6 7 7 8 9 8 9 13 16 19 22 26 29 31 36 39 38 39 40 41 41 42 45 43 39 36 30 21 15 10 6 5 7 8 6 8 8 7 7 6 6 7
31 34 36 38 37 35 34 33 32 31 31 31 32 34 35 34 34 33 33 33 33 33 30 27 26 25 26 29 30 27 23 25 26 20 15 15 14 14 12 9 7 7 7 8 8 8 9 9 8 8 8 11 14 14 15 17 18 22 28 32 35 36 39 40 40 42 44 42 41 39 31 23 19 16 9 4 6 7 7 8 9 9 8 8 8
42 43 40 39 37 33 33 32 31 29 28 29 31 32 32 30 31 31 33 34 33 31 29 28 29 29 29 29 28 26 24 26 23 14 11 14 12 8 8 7 6 6 7 8 10 10 9 10 10 9 8 9 11 11 10 11 12 15 19 24 27 29 33 36 37 40 43 43 42 41 38 29 23 22 19 11 6 6 6 7 8 9 10 10 10
34 33 31 31 32 32 32 32 32 31 28 29 29 29 28 27 28 30 30 29 28 27 27 28 30 30 29 27 25 26 26 24 18 10 10 12 9 6 5 4 4 5 7 7 8 10 10 10 10 9 10 10 9 8 8 9 11 13 15 18 20 21 24 29 34 38 41 42 42 42 41 36 27 23 25 21 13 9 6 6 6 7 8 9 9
36 38 38 39 39 36 34 32 33 34 32 32 31 30 29 29 28 27 26 27 26 27 27 27 28 28 27 26 26 28 28 21 13 11 12 11 8 8 6 4 5 6 7 7 8 9 9 9 10 10 12 12 9 7 6 4 5 7 10 14 16 16 18 20 24 31 35 39 42 42 43 42 34 27 26 25 21 15 10 7 6 6 7 8 9
32 35 35 36 37 35 35 33 33 35 34 33 32 30 28 27 26 25 25 26 25 25 25 23 23 25 25 27 29 29 24 15 11 12 13 12 11 11 11 8 6 7 8 7 7 9 8 8 10 12 14 14 11 8 5 2 1 3 6 11 14 17 18 16 16 19 24 30 36 40 43 45 41 34 30 27 24 20 16 11 8 6 6 7 9
16 21 24 27 29 30 33 33 32 31 31 30 31 29 27 25 25 25 25 25 25 25 25 24 26 29 30 33 32 26 17 12 11 13 15 16 16 17 20 18 14 14 14 9 6 8 8 7 9 13 16 15 12 10 7 3 0 0 3 6 10 16 19 17 16 15 16 20 27 32 37 42 44 41 36 32 28 25 20 15 12 8 6 7 8
5 8 11 15 20 21 24 27 27 27 27 26 26 25 26 25 24 25 25 25 26 26 26 27 29 30 30 28 23 15 11 9 10 12 16 17 16 16 20 20 17 16 17 14 8 5 7 8 10 14 17 16 15 13 10 7 5 5 7 9 11 16 18 16 16 17 15 15 19 25 30 36 41 44 41 36 33 30 25 20 15 12 8 7 9
8 7 6 5 9 12 14 17 18 19 18 18 18 17 18 17 15 15 14 13 14 15 16 17 17 18 18 15 12 11 13 13 12 14 14 15 15 11 9 11 10 11 15 15 10 6 7 10 15 18 16 15 17 16 15 16 17 15 14 14 14 16 18 17 16 16 16 15 17 20 24 27 34 41 43 41 38 35 32 27 19 15 12 8 8
14 14 12 8 6 5 6 8 9 11 12 11 11 9 8 7 6 7 8 8 9 10 12 12 12 12 12 12 13 13 13 12 11 11 9 8 10 8 6 9 10 14 19 16 10 7 7 13 20 19 14 13 14 15 18 19 18 16 15 15 15 16 19 18 15 13 13 14 16 16 17 20 24 32 39 42 44 41 38 36 30 21 15 11 8
17 20 20 17 15 10 6 6 5 5 6 5 5 5 7 11 13 14 15 15 14 13 14 14 12 13 13 13 14 14 14 13 12 12 11 11 12 11 12 14 15 19 23 18 11 8 9 16 19 14 10 11 11 11 14 15 15 15 16 17 17 19 20 18 14 11 9 10 12 11 11 13 16 21 27 33 41 44 42 40 39 33 22 14 11
16 18 19 19 21 21 19 17 13 9 8 8 10 13 18 21 21 18 17 16 16 16 16 15 15 15 15 15 15 15 16 16 15 16 16 16 17 17 17 18 20 22 20 15 12 12 14 18 14 7 6 8 8 8 11 14 14 14 16 17 19 20 19 16 12 10 9 10 11 10 10 11 13 14 16 20 27 35 40 40 41 43 37 23 14
15 15 14 14 16 18 21 23 22 22 21 21 23 23 23 20 16 13 12 11 12 13 14 15 16 17 18 21 22 23 24 24 23 22 20 19 18 17 17 20 23 22 16 13 15 16 17 16 8 4 6 7 6 7 10 13 13 13 15 17 18 19 16 14 13 12 12 11 10 9 10 12 13 12 11 13 17 23 31 37 37 41 45 40 27
16 15 14 14 12 10 12 14 15 18 20 21 22 21 18 14 10 9 8 9 10 12 13 14 14 16 19 22 25 27 28 30 30 29 28 26 23 20 18 19 22 21 15 17 21 19 15 11 5 5 10 11 9 8 11 13 12 13 16 16 16 17 16 14 12 11 11 10 8 9 11 12 14 14 12 10 13 17 23 32 35 36 42 46 43
16 18 22 23 19 15 12 10 10 12 14 18 19 16 12 9 7 8 9 11 13 13 13 13 13 16 18 19 23 26 28 31 35 37 36 32 30 28 23 19 20 21 20 22 24 19 14 10 7 9 12 13 11 10 11 12 11 12 15 16 16 17 16 14 12 11 11 10 9 10 12 13 14 14 13 11 11 12 17 24 31 35 39 42 45
17 19 24 27 27 25 21 17 18 19 20 20 16 11 7 5 7 11 14 16 16 15 15 14 14 16 17 18 21 25 28 30 34 40 42 38 36 34 28 22 22 23 23 23 20 16 15 12 9 11 12 12 11 11 11 12 11 11 12 13 14 15 15 13 11 12 12 12 14 14 13 14 13 12 13 11 10 10 11 15 20 27 35 40 41
16 17 20 23 26 27 27 25 23 23 22 16 10 6 6 9 14 18 19 19 16 16 17 16 15 15 16 20 22 23 25 26 28 33 37 37 36 33 28 25 25 24 22 19 17 15 14 11 10 11 12 13 13 12 11 11 11 10 10 10 11 12 13 12 10 11 11 13 16 17 14 13 13 13 12 10 9 10 10 11 15 19 25 33 37
14 15 17 19 20 20 21 20 18 17 14 8 6 8 11 16 19 19 19 19 18 18 17 17 17 15 15 18 20 19 18 18 20 23 25 26 26 25 25 24 24 21 17 15 13 11 9 9 10 12 12 13 13 12 11 12 12 11 10 10 10 10 11 11 11 10 10 12 15 17 16 14 13 13 12 10 10 10 10 10 13 18 20 23 30
12 13 14 16 17 17 16 14 13 12 9 8 10 14 17 17 15 12 13 14 16 17 16 16 17 16 15 17 18 18 15 13 12 14 15 17 17 17 19 19 17 14 12 10 8 8 9 10 12 14 14 14 14 14 14 13 13 12 11 11 11 12 13 13 12 12 11 11 12 14 15 15 13 11 11 12 13 11 11 11 12 17 22 21 22
11 12 13 15 17 16 15 13 12 11 11 13 15 16 15 12 9 8 9 10 12 14 15 16 15 14 13 13 14 15 14 12 11 10 10 11 11 11 11 11 10 8 7 6 6 6 8 10 10 11 12 13 14 15 16 16 15 13 11 10 10 10 11 11 11 12 12 12 12 12 12 13 12 11 11 12 13 13 12 12 12 15 21 24 22
9 9 11 14 16 17 16 16 15 16 17 17 16 13 10 9 8 8 9 12 12 11 13 15 15 15 14 13 13 13 13 13 13 13 12 12 12 12 11 11 11 11 10 10 11 11 12 13 14 14 14 14 13 13 13 12 11 10 9 8 8 8 8 8 9 10 10 12 12 11 10 11 10 11 12 10 10 13 13 12 14 15 18 25 26
7 6 8 11 15 17 17 18 19 18 18 15 11 9 7 8 9 9 12 16 16 13 12 13 14 14 14 14 13 12 12 12 12 12 13 14 14 13 13 14 14 14 14 13 13 14 14 14 15 15 15 14 13 12 11 10 9 9 9 9 9 9 10 10 10 10 10 12 13 13 11 10 9 10 11 9 8 10 10 9 10 12 15 20 24
6 4 6 9 12 16 18 20 19 16 14 10 6 5 6 7 10 14 17 19 18 17 14 13 15 16 16 16 17 17 16 17 17 16 16 16 17 17 17 17 17 16 17 16 16 16 15 15 15 15 15 15 14 14 13 12 13 14 14 15 16 16 16 16 15 14 13 12 13 15 15 12 9 8 10 10 8 7 9 10 9 8 10 14 18
6 3 4 6 10 14 18 19 19 17 18 17 14 13 16 19 22 23 21 19 20 21 20 19 22 24 23 21 19 18 18 19 19 19 18 17 17 17 17 18 18 18 18 19 20 21 21 22 23 24 24 25 25 26 26 26 25 24 23 22 21 20 20 21 20 19 19 18 17 18 19 17 12 10 12 12 9 8 9 9 10 9 8 9 12
8 3 2 4 8 13 17 19 19 18 21 24 25 26 28 30 27 20 16 18 22 21 19 18 17 16 14 12 11 10 10 10 10 10 9 9 9 10 11 12 12 13 14 15 16 16 17 18 20 22 24 26 28 30 30 30 30 29 29 28 27 26 25 24 24 23 21 21 20 19 19 18 15 13 13 12 10 9 9 8 9 11 11 11 11
11 5 2 2 5 10 16 19 17 17 20 24 28 31 29 25 19 15 14 17 17 14 11 9 8 7 7 8 9 9 9 8 8 8 7 8 8 9 10 10 11 12 12 12 13 13 14 14 14 14 15 15 15 15 15 16 17 17 19 20 21 23 25 27 28 28 27 25 22 19 17 17 16 15 15 13 11 10 9 7 6 7 9 11 13
13 8 3 1 3 8 16 19 16 15 19 23 24 23 20 16 13 13 13 12 10 7 6 5 6 8 9 10 10 9 8 7 8 8 8 8 9 9 10 11 13 13 13 13 13 13 12 11 10 8 8 7 7 7 6 6 6 6 7 9 10 12 15 17 19 21 23 24 23 21 18 16 14 13 12 12 11 10 10 9 7 6 7 9 11
17 11 6 2 2 6 14 19 16 14 16 19 19 17 14 12 11 10 9 10 9 8 7 7 7 7 9 10 9 7 6 6 6 8 10 9 9 7 6 7 9 11 14 16 16 15 14 12 11 10 7 5 5 5 6 7 6 6 8 9 9 7 5 4 6 8 10 13 16 18 18 17 16 14 12 10 7 6 7 6 5 4 5 7 8
19 16 10 6 3 5 12 18 16 13 13 13 14 14 12 9 7 5 6 9 10 10 9 8 8 9 9 9 7 7 7 7 7 8 10 10 9 7 5 6 7 9 15 19 18 18 18 17 18 19 16 14 12 10 11 11 7 8 12 11 6 4 3 5 7 7 7 8 10 12 13 14 15 16 16 17 17 16 16 15 14 14 12 8 7
17 18 15 11 6 4 8 15 16 13 11 9 8 9 8 5 3 2 6 10 10 9 7 6 8 11 10 8 7 6 6 7 8 10 10 10 9 7 5 6 8 10 17 20 16 15 16 17 18 20 19 20 19 15 13 12 10 13 16 9 2 3 8 11 11 10 12 14 17 18 17 14 13 13 12 13 16 20 23 25 25 26 26 23 20
12 15 15 14 12 6 5 12 15 13 10 9 7 7 7 7 7 7 10 14 13 8 4 2 4 7 6 5 5 4 4 5 6 8 10 9 9 8 6 6 6 8 15 20 17 13 13 12 13 17 18 19 19 17 16 16 15 15 11 5 6 9 9 8 8 12 19 25 25 25 27 24 20 16 12 10 10 11 12 14 14 15 18 21 25
11 12 14 15 15 12 6 8 13 14 10 7 6 6 6 8 10 12 13 14 15 13 8 3 2 3 4 4 3 3 5 6 7 8 9 9 11 12 8 6 5 5 8 12 12 10 9 8 9 12 15 16 16 17 17 17 16 15 11 11 17 17 9 7 9 9 17 27 25 21 25 30 31 27 22 17 12 7 7 10 13 13 13 13 15
13 12 12 14 16 16 13 9 10 13 12 8 3 3 5 6 7 10 12 12 14 16 15 12 10 9 9 9 8 8 8 8 8 8 8 8 11 13 11 7 7 8 8 8 9 8 6 4 6 8 10 12 13 13 15 16 16 18 18 19 21 16 9 11 15 11 10 18 22 21 23 29 31 30 24 17 12 10 14 20 23 23 22 20 19
14 14 13 13 14 16 17 15 12 11 12 10 5 2 3 6 7 6 8 9 10 11 12 13 14 14 14 13 14 14 14 14 13 11 10 9 10 12 12 10 9 10 12 12 11 10 7 5 6 7 7 8 10 10 12 12 11 12 13 15 20 20 13 9 13 16 14 12 13 15 17 20 22 23 21 19 19 20 22 22 22 23 24 24 25
10 12 13 13 13 14 16 18 17 15 12 11 9 5 3 4 6 6 5 5 5 5 6 7 8 11 13 13 14 14 14 14 15 14 13 12 10 9 11 12 10 11 13 13 12 11 11 10 8 7 6 8 11 11 9 9 10 11 11 12 16 20 20 15 11 12 16 15 12 10 8 8 10 12 12 13 14 14 12 10 9 10 12 12 14
12 9 11 12 12 13 14 16 18 19 17 13 11 9 6 4 4 5 5 4 3 3 3 3 4 7 9 11 11 12 12 12 12 12 12 11 10 9 9 9 9 8 8 9 10 10 10 10 9 9 8 9 12 14 11 9 11 13 13 14 14 17 23 26 20 13 12 13 15 17 15 11 9 10 11 11 10 9 9 10 9 8 7 7 7
Height
5536 5533 5530 5527 5524 5520 5517 5514 5512 5509 5506 5504 5502 5501 5500 5499 5497 5496 5494 5492 5491 5490 5489 5487 5486 5486 5487 5488 5488 5488 5489 5490 5491 5491 5491 5491 5492 5493 5494 5495 5496 5497 5499 5500 5503 5505 5508 5510 5513 5516 5519 5521 5525 5529 5532 5536 5539 5542 5545 5547 5551 5555 5558 5561 5562 5565 5569 5574 5577 5580 5581 5583 5585 5590 5594 5597 5600 5603 5606 5610 5614 5618 5621 5625 5627
5528 5523 5520 5517 5514 5511 5508 5504 5501 5498 5495 5493 5491 5489 5487 5486 5484 5482 5480 5478 5476 5475 5473 5472 5471 5471 5471 5472 5472 5473 5475 5475 5476 5477 5477 5477 5479 5479 5481 5482 5483 5484 5485 5487 5489 5492 5494 5497 5500 5503 5506 5508 5512 5516 5519 5523 5527 5530 5533 5536 5540 5544 5548 5551 5552 5554 5558 5563 5566 5568 5570 5573 5575 5579 5585 5590 5593 5596 5598 5602 5606 5609 5613 5616 5619
5519 5515 5511 5508 5504 5501 5497 5494 5490 5487 5484 5482 5479 5477 5475 5473 5471 5469 5466 5464 5461 5459 5458 5457 5456 5456 5455 5456 5456 5457 5459 5459 5459 5461 5462 5463 5464 5466 5467 5468 5468 5470 5472 5473 5475 5478 5480 5483 5487 5489 5492 5496 5499 5503 5506 5510 5513 5517 5520 5524 5528 5532 5537 5541 5542 5544 5548 5552 5554 5555 5560 5565 5566 5570 5577 5583 5587 5589 5590 5593 5597 5601 5604 5607 5610
5510 5506 5502 5499 5495 5491 5487 5484 5480 5476 5473 5470 5468 5466 5463 5461 5458 5456 5453 5450 5448 5445 5443 5442 5441 5441 5440 5439 5439 5439 5441 5442 5442 5444 5446 5447 5449 5451 5451 5452 5453 5455 5457 5458 5460 5464 5466 5469 5472 5475 5479 5483 5487 5491 5494 5497 5500 5503 5506 5511 5516 5520 5525 5530 5531 5532 5536 5541 5542 5544 5551 5554 5556 5563 5571 5575 5577 5578 5580 5584 5588 5593 5596 5598 5602
5501 5497 5493 5490 5486 5482 5478 5474 5470 5466 5463 5460 5457 5455 5452 5449 5446 5444 5441 5437 5434 5431 5429 5428 5427 5426 5425 5424 5424 5424 5425 5426 5425 5426 5429 5430 5431 5433 5434 5435 5436 5437 5440 5442 5445 5448 5451 5454 5457 5461 5465 5469 5472 5476 5480 5484 5486 5490 5492 5496 5501 5506 5511 5517 5520 5522 5525 5528 5530 5533 5539 5542 5548 5557 5561 5562 5564 5568 5573 5576 5579 5583 5587 5590 5594
5492 5488 5484 5481 5478 5474 5469 5464 5460 5456 5452 5449 5446 5444 5440 5436 5434 5431 5428 5425 5421 5418 5415 5414 5412 5411 5410 5410 5409 5409 5410 5412 5411 5411 5412 5414 5415 5416 5417 5417 5417 5419 5423 5425 5428 5431 5434 5437 5441 5445 5450 5454 5457 5460 5465 5469 5473 5476 5479 5482 5486 5490 5496 5502 5507 5511 5513 5515 5518 5523 5527 5531 5539 5546 5547 5550 5555 5558 5564 5568 5570 5573 5577 5581 5586
5484 5480 5476 5472 5469 5465 5460 5455 5450 5445 5441 5437 5434 5430 5426 5423 5420 5418 5416 5412 5409 5405 5402 5400 5398 5397 5395 5395 5395 5394 5395 5397 5398 5397 5398 5400 5401 5402 5402 5401 5400 5402 5405 5407 5409 5411 5414 5419 5423 5428 5433 5436 5440 5443 5448 5453 5457 5461 5465 5468 5472 5476 5480 5486 5493 5498 5500 5502 5506 5511 5515 5519 5527 5533 5535 5540 5544 5547 5554 5560 5562 5565 5567 5572 5577
5476 5471 5467 5463 5459 5454 5450 5445 5440 5434 5429 5425 5421 5417 5413 5409 5407 5405 5403 5399 5395 5391 5388 5386 5383 5382 5381 5381 5381 5380 5379 5381 5384 5383 5384 5386 5387 5389 5388 5387 5387 5387 5389 5391 5392 5393 5395 5399 5403 5408 5413 5417 5421 5425 5430 5435 5439 5444 5449 5453 5458 5462 5466 5471 5478 5483 5485 5489 5494 5498 5502 5507 5513 5520 5525 5528 5531 5537 5544 5549 5554 5557 5559 5563 5568
5467 5462 5458 5453 5449 5444 5439 5435 5429 5423 5419 5414 5410 5405 5400 5396 5393 5391 5389 5385 5380 5376 5373 5370 5368 5367 5366 5365 5366 5366 5365 5366 5368 5369 5370 5371 5373 5375 5374 5373 5373 5373 5375 5377 5377 5377 5378 5381 5383 5387 5391 5396 5400 5404 5409 5415 5421 5426 5431 5436 5441 5447 5452 5457 5463 5467 5469 5475 5480 5484 5489 5494 5500 5507 5512 5516 5519 5526 5533 5539 5545 5548 5549 5555 5560
5459 5454 5448 5443 5439 5433 5428 5423 5418 5412 5407 5402 5397 5392 5387 5383 5380 5378 5376 5371 5366 5361 5358 5356 5354 5352 5351 5350 5350 5351 5351 5351 5353 5354 5356 5356 5358 5361 5360 5359 5359 5359 5361 5362 5362 5362 5363 5364 5365 5368 5372 5375 5379 5383 5387 5393 5399 5405 5411 5417 5423 5430 5437 5443 5449 5452 5455 5460 5465 5469 5475 5482 5487 5494 5500 5504 5508 5515 5522 5528 5534 5537 5541 5548 5552
5450 5444 5439 5433 5427 5421 5415 5410 5405 5399 5394 5388 5383 5378 5373 5370 5367 5366 5363 5358 5352 5348 5345 5342 5340 5338 5337 5336 5335 5336 5337 5337 5339 5340 5341 5342 5344 5346 5345 5345 5347 5348 5349 5349 5349 5348 5349 5350 5351 5353 5355 5357 5360 5363 5367 5372 5377 5382 5388 5395 5403 5411 5418 5425 5432 5438 5441 5445 5450 5455 5462 5469 5475 5480 5487 5492 5496 5502 5509 5516 5522 5527 5533 5540 5542
5440 5433 5427 5421 5414 5409 5403 5397 5392 5387 5381 5374 5368 5364 5360 5357 5355 5353 5351 5346 5340 5337 5333 5330 5328 5326 5325 5323 5322 5323 5323 5324 5326 5327 5328 5330 5331 5332 5333 5334 5336 5337 5338 5338 5338 5337 5338 5339 5340 5340 5340 5342 5345 5347 5350 5354 5357 5362 5367 5373 5381 5389 5398 5405 5413 5421 5427 5432 5436 5440 5446 5455 5461 5467 5474 5479 5484 5490 5497 5503 5510 5516 5522 5529 5533
5429 5422 5415 5408 5401 5395 5389 5383 5378 5373 5367 5360 5355 5351 5348 5345 5343 5341 5338 5334 5328 5325 5322 5320 5318 5316 5314 5313 5312 5312 5312 5313 5314 5316 5318 5318 5319 5321 5322 5325 5327 5329 5329 5329 5329 5328 5329 5330 5329 5329 5330 5331 5332 5334 5337 5339 5342 5345 5349 5354 5360 5368 5376 5384 5392 5402 5410 5416 5422 5427 5432 5438 5446 5454 5461 5465 5470 5478 5484 5490 5498 5504 5511 5518 5522
5417 5409 5402 5396 5389 5382 5376 5370 5364 5358 5352 5347 5342 5338 5335 5332 5330 5328 5325 5321 5316 5313 5311 5309 5307 5306 5304 5303 5302 5302 5302 5302 5303 5305 5308 5309 5310 5312 5315 5317 5319 5321 5321 5321 5321 5321 5322 5322 5321 5321 5321 5322 5322 5324 5326 5327 5329 5332 5335 5339 5344 5350 5356 5363 5371 5382 5391 5399 5406 5413 5419 5425 5432 5440 5447 5451 5457 5464 5471 5479 5486 5491 5498 5506 5510
5406 5398 5392 5385 5379 5372 5365 5358 5351 5345 5339 5333 5328 5324 5320 5318 5316 5313 5310 5307 5304 5302 5299 5298 5297 5296 5295 5294 5293 5292 5292 5293 5294 5296 5298 5300 5302 5305 5307 5309 5311 5313 5314 5314 5314 5314 5315 5315 5314 5314 5314 5314 5315 5316 5317 5318 5319 5321 5325 5328 5332 5336 5340 5345 5353 5362 5372 5380 5388 5397 5405 5411 5417 5424 5431 5437 5444 5450 5458 5466 5473 5477 5484 5492 5498
5395 5387 5381 5374 5368 5360 5353 5345 5339 5333 5327 5321 5316 5311 5307 5304 5300 5297 5295 5293 5292 5290 5288 5287 5286 5286 5285 5284 5284 5282 5282 5284 5286 5288 5290 5292 5294 5297 5300 5303 5305 5306 5307 5308 5308 5308 5308 5309 5309 5309 5309 5309 5309 5310 5310 5312 5312 5313 5316 5319 5323 5326 5328 5332 5339 5346 5354 5362 5370 5378 5386 5394 5402 5408 5415 5423 5431 5438 5445 5452 5458 5464 5471 5478 5486
5383 5376 5369 5362 5355 5347 5340 5333 5327 5321 5315 5309 5305 5301 5296 5292 5288 5284 5282 5281 5280 5279 5277 5276 5276 5276 5276 5275 5274 5273 5273 5275 5278 5280 5282 5285 5288 5291 5293 5296 5298 5299 5301 5302 5302 5302 5302 5303 5303 5303 5303 5304 5305 5305 5305 5306 5307 5309 5311 5313 5316 5318 5319 5323 5328 5333 5340 5347 5353 5360 5368 5377 5386 5393 5399 5407 5416 5424 5431 5439 5445 5451 5458 5464 5472
5371 5363 5356 5349 5342 5335 5328 5321 5315 5309 5303 5298 5294 5290 5286 5282 5278 5275 5273 5271 5270 5269 5268 5267 5267 5267 5266 5266 5265 5265 5266 5268 5271 5273 5276 5279 5281 5284 5287 5289 5291 5293 5294 5295 5296 5296 5296 5297 5297 5298 5298 5299 5300 5301 5301 5302 5303 5305 5307 5309 5311 5312 5312 5316 5320 5324 5330 5335 5340 5346 5353 5362 5371 5378 5384 5392 5401 5410 5418 5425 5432 5439 5445 5451 5459
5358 5351 5344 5337 5331 5325 5319 5313 5307 5301 5295 5290 5285 5281 5277 5273 5270 5268 5265 5264 5262 5261 5260 5260 5259 5258 5258 5258 5258 5258 5259 5262 5265 5267 5270 5273 5276 5278 5280 5282 5284 5286 5287 5288 5289 5290 5291 5291 5292 5292 5293 5294 5295 5296 5297 5298 5299 5301 5302 5304 5306 5306 5308 5311 5314 5317 5322 5325 5329 5335 5341 5349 5357 5364 5371 5378 5385 5394 5403 5412 5419 5426 5432 5439 5447
5348 5342 5335 5329 5323 5317 5312 5306 5301 5295 5290 5285 5280 5275 5271 5267 5264 5261 5259 5257 5256 5254 5254 5253 5252 5251 5251 5251 5252 5253 5254 5257 5260 5263 5265 5268 5270 5272 5273 5275 5277 5279 5281 5282 5283 5284 5285 5285 5286 5287 5288 5289 5290 5291 5292 5293 5295 5296 5298 5299 5301 5301 5303 5307 5309 5312 5315 5318 5321 5326 5332 5338 5345 5351 5358 5365 5372 5379 5388 5398 5405 5413 5419 5427 5435
5343 5336 5329 5322 5316 5310 5305 5300 5295 5290 5286 5281 5276 5271 5267 5263 5260 5257 5254 5252 5251 5250 5249 5248 5247 5246 5246 5246 5247 5248 5251 5254 5257 5259 5261 5262 5264 5266 5268 5269 5271 5273 5275 5276 5277 5278 5279 5280 5281 5282 5284 5285 5286 5287 5287 5288 5290 5291 5293 5295 5296 5297 5299 5302 5304 5306 5309 5311 5315 5319 5324 5329 5334 5339 5346 5354 5360 5367 5374 5383 5391 5399 5407 5415 5422
5341 5333 5326 5319 5312 5306 5300 5295 5290 5286 5281 5277 5273 5269 5265 5262 5258 5255 5252 5250 5248 5246 5245 5244 5243 5242 5242 5243 5244 5246 5249 5251 5253 5255 5256 5257 5259 5261 5262 5264 5266 5268 5269 5270 5271 5273 5274 5275 5276 5277 5278 5280 5281 5282 5283 5284 5285 5287 5288 5290 5292 5293 5295 5297 5299 5301 5304 5306 5309 5312 5317 5321 5325 5329 5336 5343 5350 5356 5362 5369 5377 5386 5394 5403 5410
5340 5332 5325 5317 5310 5304 5298 5293 5288 5283 5279 5274 5271 5267 5264 5261 5258 5255 5253 5250 5247 5245 5243 5242 5241 5241 5241 5241 5243 5245 5247 5248 5249 5250 5251 5252 5254 5255 5257 5259 5261 5263 5264 5265 5266 5267 5268 5270 5271 5273 5274 5275 5276 5278 5279 5280 5281 5282 5284 5285 5287 5288 5290 5292 5294 5297 5299 5301 5304 5307 5311 5314 5316 5320 5327 5333 5339 5345 5351 5358 5365 5373 5381 5390 5398
5339 5332 5325 5317 5310 5304 5298 5293 5288 5283 5278 5274 5270 5267 5264 5261 5258 5255 5253 5250 5247 5245 5243 5242 5241 5240 5240 5241 5242 5243 5244 5244 5245 5245 5246 5247 5248 5250 5252 5254 5256 5258 5259 5260 5261 5262 5263 5265 5267 5269 5270 5271 5273 5274 5275 5276 5277 5278 5279 5280 5282 5284 5285 5287 5289 5292 5294 5296 5299 5302 5305 5307 5309 5313 5319 5324 5329 5335 5341 5348 5355 5362 5369 5378 5386
5337 5330 5323 5317 5310 5304 5299 5293 5288 5283 5279 5275 5271 5268 5265 5261 5258 5255 5253 5250 5247 5245 5243 5242 5240 5240 5239 5239 5239 5239 5239 5240 5240 5240 5241 5241 5243 5244 5246 5248 5250 5251 5253 5254 5255 5257 5258 5261 5263 5265 5266 5267 5269 5270 5271 5272 5273 5274 5275 5276 5277 5279 5280 5283 5285 5287 5289 5292 5295 5298 5300 5301 5304 5308 5312 5316 5320 5325 5332 5339 5345 5351 5358 5366 5374
5334 5327 5321 5315 5309 5303 5298 5293 5288 5283 5279 5276 5272 5269 5265 5262 5258 5255 5252 5250 5247 5245 5243 5241 5239 5238 5237 5236 5235 5235 5234 5234 5234 5234 5235 5236 5237 5238 5240 5242 5243 5245 5246 5248 5250 5252 5254 5257 5260 5261 5262 5264 5265 5266 5267 5268 5269 5270 5271 5272 5273 5274 5276 5278 5280 5282 5285 5287 5290 5293 5294 5296 5299 5302 5306 5309 5312 5316 5322 5328 5334 5341 5348 5355 5362
5332 5325 5319 5313 5308 5302 5296 5291 5287 5283 5279 5275 5271 5268 5264 5261 5258 5255 5252 5250 5247 5245 5242 5240 5238 5237 5235 5233 5232 5231 5230 5229 5229 5229 5229 5230 5231 5233 5234 5236 5238 5239 5241 5243 5245 5247 5250 5253 5255 5257 5259 5260 5261 5262 5263 5264 5265 5265 5266 5268 5269 5270 5272 5274 5276 5278 5280 5283 5285 5287 5289 5291 5294 5296 5299 5302 5304 5308 5312 5317 5324 5330 5337 5344 5351
5333 5326 5319 5313 5307 5301 5296 5290 5285 5281 5277 5274 5270 5267 5264 5261 5258 5255 5252 5250 5247 5244 5242 5240 5237 5235 5233 5231 5229 5227 5225 5224 5223 5223 5224 5224 5226 5228 5229 5231 5233 5235 5237 5239 5241 5244 5247 5250 5252 5254 5255 5256 5257 5258 5259 5260 5261 5261 5262 5264 5265 5266 5268 5270 5272 5274 5276 5278 5280 5282 5284 5286 5289 5291 5294 5296 5298 5302 5305 5309 5315 5320 5326 5333 5341
5333 5327 5320 5313 5307 5301 5296 5291 5285 5281 5277 5274 5270 5267 5264 5261 5258 5255 5253 5250 5247 5244 5242 5239 5236 5234 5231 5229 5226 5224 5222 5220 5219 5218 5218 5219 5221 5223 5225 5228 5230 5232 5234 5236 5239 5242 5244 5247 5249 5251 5253 5254 5254 5255 5256 5257 5257 5258 5259 5260 5261 5263 5265 5267 5269 5270 5272 5274 5276 5277 5279 5282 5284 5287 5289 5291 5294 5296 5298 5302 5307 5312 5316 5323 5330
5332 5326 5319 5313 5306 5301 5296 5291 5287 5282 5278 5275 5271 5268 5265 5262 5259 5256 5253 5250 5247 5244 5241 5239 5236 5233 5230 5227 5224 5222 5219 5217 5216 5215 5215 5216 5217 5220 5222 5225 5227 5229 5232 5234 5237 5239 5242 5244 5246 5248 5250 5251 5251 5252 5253 5254 5255 5255 5256 5257 5259 5261 5262 5264 5266 5267 5268 5270 5272 5274 5276 5278 5280 5282 5285 5287 5289 5291 5293 5297 5301 5304 5308 5313 5320
5331 5324 5318 5311 5306 5301 5296 5291 5287 5283 5280 5276 5272 5269 5266 5263 5260 5257 5253 5250 5247 5244 5241 5239 5236 5233 5230 5227 5224 5222 5219 5217 5215 5213 5213 5214 5215 5218 5220 5223 5225 5228 5230 5233 5235 5237 5240 5242 5244 5246 5247 5248 5248 5249 5250 5251 5251 5252 5253 5254 5256 5257 5259 5261 5263 5264 5266 5267 5268 5270 5272 5274 5276 5278 5280 5283 5284 5286 5289 5291 5295 5298 5301 5305 5310
5330 5324 5318 5313 5307 5302 5297 5292 5288 5285 5281 5278 5274 5271 5267 5264 5260 5257 5254 5250 5247 5245 5242 5239 5237 5234 5231 5229 5226 5223 5221 5219 5217 5215 5214 5215 5216 5218 5220 5223 5225 5227 5230 5232 5234 5237 5239 5240 5242 5243 5244 5245 5246 5246 5247 5247 5248 5249 5250 5251 5253 5254 5256 5257 5259 5261 5262 5264 5265 5267 5268 5270 5272 5274 5276 5278 5280 5282 5284 5286 5289 5292 5295 5298 5302
5331 5325 5320 5314 5309 5304 5299 5294 5290 5286 5283 5279 5276 5272 5268 5265 5261 5258 5254 5251 5248 5246 5243 5240 5238 5236 5233 5231 5228 5226 5224 5222 5220 5219 5218 5218 5219 5220 5222 5224 5226 5228 5230 5232 5234 5236 5237 5239 5240 5241 5242 5242 5243 5243 5243 5244 5245 5246 5247 5248 5250 5251 5252 5254 5255 5257 5258 5260 5262 5263 5265 5267 5268 5270 5272 5273 5275 5278 5280 5282 5284 5286 5289 5292 5296
5332 5327 5321 5316 5311 5306 5301 5296 5292 5288 5284 5280 5276 5273 5269 5266 5262 5259 5256 5253 5250 5247 5244 5242 5240 5237 5235 5233 5231 5229 5227 5225 5223 5222 5222 5222 5222 5223 5225 5226 5228 5229 5231 5232 5233 5235 5236 5237 5238 5238 5239 5239 5240 5240 5241 5241 5242 5243 5244 5245 5247 5248 5249 5250 5252 5253 5255 5256 5258 5259 5261 5263 5264 5266 5268 5270 5271 5273 5275 5277 5279 5281 5284 5288 5290
5333 5328 5323 5318 5313 5308 5303 5298 5294 5290 5286 5282 5277 5274 5270 5267 5264 5261 5258 5255 5252 5249 5246 5244 5241 5239 5237 5235 5233 5231 5229 5228 5226 5226 5225 5225 5225 5226 5227 5228 5229 5230 5231 5232 5233 5233 5234 5235 5235 5236 5236 5236 5237 5237 5238 5239 5239 5240 5241 5242 5243 5244 5245 5247 5248 5249 5251 5252 5254 5255 5257 5259 5260 5262 5264 5266 5268 5269 5271 5273 5275 5277 5279 5282 5285
5335 5330 5325 5320 5314 5310 5305 5300 5295 5291 5287 5283 5279 5276 5272 5269 5266 5263 5259 5256 5254 5251 5249 5246 5244 5242 5240 5238 5236 5234 5232 5231 5230 5229 5228 5228 5228 5228 5229 5229 5230 5230 5231 5232 5232 5232 5233 5233 5234 5234 5234 5234 5234 5235 5235 5236 5236 5237 5238 5239 5240 5241 5242 5243 5244 5245 5247 5248 5250 5251 5253 5254 5256 5258 5260 5262 5264 5265 5267 5269 5271 5272 5275 5277 5280
5336 5331 5325 5320 5316 5310 5306 5301 5297 5293 5289 5285 5281 5277 5274 5271 5268 5264 5261 5258 5255 5253 5251 5249 5247 5245 5243 5241 5238 5237 5235 5234 5233 5232 5231 5231 5230 5230 5230 5230 5231 5231 5231 5231 5232 5232 5232 5232 5232 5232 5232 5232 5232 5232 5233 5233 5234 5234 5235 5236 5236 5237 5238 5239 5240 5241 5242 5244 5245 5247 5249 5250 5252 5254 5256 5258 5260 5261 5263 5265 5267 5269 5271 5273 5275
5338 5333 5327 5322 5317 5312 5307 5303 5298 5294 5290 5286 5282 5279 5276 5272 5269 5266 5263 5260 5257 5255 5253 5251 5249 5248 5246 5243 5241 5240 5238 5237 5236 5235 5234 5233 5233 5233 5232 5232 5232 5232 5232 5231 5231 5231 5231 5231 5231 5231 5231 5231 5231 5231 5231 5231 5231 5232 5232 5233 5233 5233 5234 5235 5235 5236 5238 5240 5241 5243 5245 5247 5249 5250 5252 5254 5255 5257 5259 5262 5263 5265 5267 5269 5271
5339 5335 5330 5325 5319 5314 5309 5304 5300 5295 5291 5287 5283 5280 5277 5274 5271 5268 5265 5262 5260 5258 5256 5254 5252 5251 5249 5247 5245 5243 5242 5240 5239 5238 5237 5236 5236 5235 5235 5234 5233 5233 5233 5232 5232 5231 5231 5230 5230 5229 5229 5229 5229 5229 5229 5229 5229 5229 5230 5230 5230 5230 5231 5231 5232 5232 5234 5235 5237 5239 5241 5243 5245 5247 5248 5249 5251 5253 5255 5258 5260 5261 5264 5266 5267
5341 5336 5332 5327 5322 5317 5312 5307 5303 5298 5293 5289 5285 5281 5278 5275 5273 5270 5267 5265 5263 5261 5259 5257 5256 5254 5253 5251 5249 5247 5246 5244 5243 5242 5240 5239 5239 5238 5237 5236 5235 5235 5234 5233 5233 5232 5231 5230 5230 5229 5229 5228 5228 5228 5228 5228 5227 5227 5227 5228 5228 5228 5228 5228 5229 5229 5230 5232 5233 5235 5237 5239 5241 5242 5243 5245 5247 5249 5251 5253 5255 5257 5260 5262 5263
5343 5338 5334 5329 5324 5319 5314 5309 5305 5300 5296 5291 5287 5284 5281 5278 5276 5273 5271 5269 5267 5265 5263 5262 5260 5259 5257 5255 5253 5251 5249 5248 5246 5245 5243 5242 5241 5240 5239 5238 5237 5236 5235 5234 5233 5233 5232 5231 5231 5230 5230 5229 5229 5228 5228 5227 5227 5227 5227 5227 5227 5227 5227 5227 5227 5228 5228 5229 5230 5231 5233 5235 5236 5238 5239 5240 5242 5244 5246 5249 5251 5254 5256 5257 5258
5344 5340 5336 5331 5326 5321 5316 5311 5307 5303 5299 5294 5290 5287 5284 5282 5280 5277 5275 5273 5271 5269 5267 5266 5264 5262 5260 5258 5256 5255 5253 5251 5250 5248 5246 5245 5243 5242 5241 5240 5239 5238 5237 5236 5234 5233 5233 5232 5232 5231 5230 5230 5229 5229 5229 5228 5228 5227 5227 5227 5227 5227 5227 5227 5227 5227 5227 5227 5228 5229 5230 5231 5232 5234 5235 5237 5238 5240 5241 5244 5247 5250 5251 5252 5254
5345 5341 5337 5333 5328 5324 5319 5314 5310 5306 5302 5298 5294 5291 5289 5286 5284 5282 5279 5277 5275 5273 5271 5269 5267 5265 5263 5262 5260 5258 5256 5254 5252 5251 5249 5247 5246 5245 5243 5242 5241 5239 5238 5237 5235 5234 5233 5233 5232 5231 5231 5230 5230 5229 5229 5228 5228 5228 5227 5227 5227 5227 5226 5226 5226 5226 5226 5226 5226 5227 5227 5228 5229 5230 5232 5233 5235 5236 5238 5240 5243 5245 5246 5247 5249
5347 5343 5338 5334 5330 5326 5321 5317 5313 5309 5306 5302 5298 5296 5293 5290 5288 5286 5283 5281 5279 5276 5274 5272 5270 5268 5267 5265 5263 5261 5259 5257 5255 5254 5252 5250 5248 5247 5245 5244 5242 5241 5239 5238 5236 5235 5234 5233 5232 5232 5231 5230 5229 5229 5228 5228 5228 5227 5227 5227 5226 5226 5226 5225 5225 5225 5224 5224 5224 5224 5225 5225 5226 5227 5228 5230 5232 5233 5235 5237 5239 5241 5242 5242 5244
5348 5344 5339 5335 5331 5327 5324 5320 5316 5312 5309 5305 5302 5299 5297 5294 5292 5289 5287 5284 5282 5280 5277 5275 5273 5271 5269 5268 5266 5264 5262 5260 5258 5256 5254 5252 5251 5249 5247 5245 5243 5242 5241 5240 5238 5236 5235 5234 5233 5232 5231 5230 5230 5229 5229 5228 5228 5227 5227 5226 5226 5225 5225 5224 5223 5223 5222 5221 5221 5221 5221 5222 5223 5224 5226 5227 5229 5230 5232 5233 5235 5236 5237 5238 5239
5349 5345 5341 5337 5333 5329 5325 5321 5318 5315 5311 5308 5306 5303 5300 5297 5295 5292 5290 5287 5285 5282 5280 5278 5276 5274 5272 5270 5268 5266 5264 5262 5260 5258 5256 5254 5252 5251 5249 5247 5245 5243 5242 5241 5240 5238 5237 5235 5234 5233 5232 5231 5230 5229 5228 5228 5227 5227 5226 5225 5225 5224 5223 5223 5222 5221 5219 5218 5218 5218 5218 5218 5219 5221 5222 5224 5226 5228 5229 5230 5231 5232 5232 5233 5235
5351 5347 5343 5338 5334 5330 5327 5323 5320 5317 5314 5311 5308 5306 5303 5300 5297 5295 5292 5290 5287 5285 5283 5280 5278 5276 5274 5272 5270 5268 5265 5263 5261 5260 5258 5256 5254 5252 5251 5249 5246 5245 5243 5242 5241 5240 5238 5237 5235 5234 5233 5231 5230 5229 5228 5228 5227 5227 5226 5225 5224 5223 5222 5221 5220 5219 5217 5216 5215 5215 5215 5215 5216 5217 5219 5221 5223 5224 5225 5226 5227 5227 5228 5229 5230
5352 5348 5344 5340 5336 5332 5329 5325 5322 5319 5316 5313 5311 5308 5305 5303 5300 5297 5294 5292 5289 5287 5284 5282 5280 5278 5276 5274 5272 5269 5267 5265 5263 5261 5259 5257 5256 5254 5252 5251 5249 5247 5246 5244 5243 5241 5240 5238 5237 5235 5234 5233 5231 5230 5229 5228 5227 5226 5225 5224 5223 5222 5221 5220 5219 5218 5217 5215 5215 5214 5214 5213 5214 5215 5216 5218 5220 5221 5222 5222 5223 5224 5224 5225 5226
5354 5350 5346 5342 5338 5334 5330 5327 5323 5320 5317 5314 5312 5309 5307 5304 5302 5299 5296 5294 5291 5289 5286 5284 5282 5280 5278 5275 5273 5271 5269 5267 5265 5263 5261 5259 5257 5255 5254 5252 5251 5249 5248 5246 5244 5243 5241 5239 5238 5237 5235 5234 5232 5231 5230 5229 5227 5226 5225 5223 5222 5221 5221 5220 5219 5218 5216 5215 5215 5214 5213 5213 5213 5214 5215 5217 5218 5219 5219 5220 5220 5221 5221 5222 5222
5355 5350 5346 5343 5339 5335 5331 5328 5324 5321 5318 5315 5312 5310 5308 5306 5303 5301 5298 5296 5293 5290 5288 5286 5283 5281 5279 5277 5275 5273 5271 5268 5267 5265 5263 5260 5258 5257 5255 5254 5252 5251 5249 5247 5246 5244 5242 5240 5239 5237 5236 5235 5233 5232 5231 5229 5228 5226 5225 5224 5222 5221 5220 5219 5218 5217 5216 5215 5215 5214 5213 5213 5213 5214 5214 5215 5216 5217 5218 5218 5219 5219 5220 5220 5220
5356 5351 5347 5343 5339 5335 5332 5328 5325 5322 5318 5316 5313 5310 5308 5306 5304 5302 5299 5297 5294 5292 5289 5287 5285 5282 5280 5278 5276 5274 5272 5270 5268 5266 5264 5262 5260 5258 5257 5255 5253 5252 5250 5248 5246 5244 5243 5241 5240 5238 5237 5236 5234 5233 5232 5230 5229 5227 5225 5224 5222 5221 5220 5219 5218 5217 5216 5215 5214 5213 5213 5213 5213 5213 5214 5214 5215 5215 5216 5217 5217 5217 5218 5218 5219